Fosston, MN

2:08 PM CST on January 20, 2017 (GMT -0600)
Fosston Municipal

Weather History for KFSE - December, 2012

Change the Weather History Date:

Monday, December 17, 2012

  Actual Average Record
Temperature  
Mean Temperature 14 °F -  
Max Temperature 17 °F 20 °F 41 °F (2001)
Min Temperature 12 °F 2 °F -28 °F (1983)
Degree Days  
Heating Degree Days 50    
Moisture  
Dew Point 14 °F    
Average Humidity 93    
Maximum Humidity 100    
Minimum Humidity 86    
Precipitation  
Precipitation 0.00 in - - ()
Sea Level Pressure  
Sea Level Pressure 29.71 in    
Wind  
Wind Speed 0 mph (North)    
Max Wind Speed 0 mph    
Max Gust Speed -    
Visibility 6 miles    
Events Snow    
Averages and records for this station are not official NWS values.
T = Trace of Precipitation, MM = Missing Value Source: NWS Daily Summary

Daily Weather History Graph

Daily Weather History Graph

Search for Another Location

Airport or City:

Trip Planner

Search our weather history database for the weather conditions in past years. The results will help you decide how hot, cold, wet, or windy it might be!

Date:

Astronomy

Dec. 17, 2012 Rise Set
Actual Time 8:06 AM CST 4:32 PM CST
Civil Twilight 7:30 AM CST 5:08 PM CST
Nautical Twilight 6:51 AM CST 5:48 PM CST
Astronomical Twilight 6:13 AM CST 6:25 PM CST
Moon 10:57 AM CST (12/17) 10:15 PM CST (12/17)
Length of Visible Light 9h 38m
Length of Day
8h 26m
Waxing Crescent, 25% of the Moon is Illuminated
Dec 17
Waxing Crescent
Dec 19
First Quarter
Dec 28
Full
Jan 4
Last Quarter
Jan 11
New

Hourly Weather History & Observations

Time (CST) Temp. Dew Point Humidity Pressure Visibility Wind Dir Wind Speed Gust Speed Precip Events Conditions
12:16 AM 17.6 °F 15.8 °F 93% 29.78 in 2.5 mi Calm Calm - N/A   Overcast
12:35 AM 17.6 °F 15.8 °F 93% 29.78 in 4.0 mi Calm Calm - N/A   Overcast
12:56 AM 17.6 °F 15.8 °F 93% 29.78 in 3.0 mi Calm Calm - N/A   Overcast
1:15 AM 17.6 °F 15.8 °F 93% 29.78 in 3.0 mi Calm Calm - N/A   Overcast
1:35 AM 17.6 °F 15.8 °F 93% 29.77 in 3.0 mi Calm Calm - N/A   Overcast
1:55 AM 15.8 °F 15.8 °F 100% 29.78 in 4.0 mi Calm Calm - N/A   Overcast
2:16 AM 15.8 °F 15.8 °F 100% 29.78 in 2.5 mi Calm Calm - N/A   Overcast
2:35 AM 15.8 °F 14.0 °F 93% 29.77 in 3.0 mi Calm Calm - N/A   Overcast
2:55 AM 15.8 °F 14.0 °F 93% 29.77 in 1.8 mi Calm Calm - N/A   Overcast
3:16 AM 15.8 °F 14.0 °F 93% 29.76 in 1.8 mi Calm Calm - N/A   Overcast
3:35 AM 15.8 °F 14.0 °F 93% 29.75 in 1.8 mi Calm Calm - N/A   Overcast
3:55 AM 15.8 °F 12.2 °F 86% 29.75 in 2.0 mi Calm Calm - N/A   Overcast
4:15 AM 15.8 °F 12.2 °F 86% 29.75 in 3.0 mi Calm Calm - N/A   Overcast
4:35 AM 15.8 °F 12.2 °F 86% 29.74 in 2.0 mi Calm Calm - N/A   Overcast
4:55 AM 15.8 °F 12.2 °F 86% 29.75 in 1.8 mi Calm Calm - N/A   Overcast
5:15 AM 15.8 °F 12.2 °F 86% 29.74 in 2.0 mi Calm Calm - N/A   Overcast
5:35 AM 15.8 °F 12.2 °F 86% 29.74 in 2.5 mi Calm Calm - N/A   Overcast
5:55 AM 15.8 °F 12.2 °F 86% 29.74 in 2.5 mi Calm Calm - N/A   Overcast
6:15 AM 15.8 °F 12.2 °F 86% 29.74 in 2.5 mi Calm Calm - N/A   Overcast
6:35 AM 14.0 °F 12.2 °F 93% 29.74 in 4.0 mi Calm Calm - N/A   Overcast
6:55 AM 14.0 °F 12.2 °F 93% 29.74 in 4.0 mi Calm Calm - N/A   Overcast
7:16 AM 14.0 °F 12.2 °F 93% 29.74 in 4.0 mi Calm Calm - N/A   Overcast
7:35 AM 14.0 °F 12.2 °F 93% 29.73 in 2.5 mi Calm Calm - N/A Snow Light Snow
7:55 AM 14.0 °F 12.2 °F 93% 29.73 in 5.0 mi Calm Calm - N/A Snow Light Snow
8:15 AM 14.0 °F 12.2 °F 93% 29.73 in 5.0 mi Calm Calm - N/A   Overcast
8:35 AM 14.0 °F 12.2 °F 93% 29.73 in 4.0 mi Calm Calm - N/A   Overcast
8:55 AM 12.2 °F 12.2 °F 100% 29.73 in 1.5 mi Calm Calm - N/A   Overcast
9:15 AM 14.0 °F 12.2 °F 93% 29.73 in 3.0 mi Calm Calm - N/A   Overcast
9:35 AM 14.0 °F 12.2 °F 93% 29.73 in 3.0 mi Calm Calm - N/A   Overcast
9:55 AM 14.0 °F 12.2 °F 93% 29.73 in 10.0 mi Calm Calm - N/A   Overcast
10:16 AM 14.0 °F 12.2 °F 93% 29.73 in 2.5 mi Calm Calm - N/A   Overcast
10:35 AM 15.8 °F 12.2 °F 86% - 1.5 mi Calm Calm - N/A   Overcast
10:55 AM 15.8 °F 14.0 °F 93% 29.73 in 4.0 mi Calm Calm - N/A   Overcast
11:15 AM 15.8 °F 14.0 °F 93% 29.72 in 4.0 mi Calm Calm - N/A   Overcast
11:35 AM 15.8 °F 12.2 °F 86% 29.72 in 5.0 mi Calm Calm - N/A   Overcast
11:55 AM 15.8 °F 14.0 °F 93% 29.71 in 4.0 mi Calm Calm - N/A   Overcast
12:15 PM 15.8 °F 14.0 °F 93% 29.71 in 10.0 mi Calm Calm - N/A   Overcast
12:35 PM 15.8 °F 14.0 °F 93% 29.70 in 10.0 mi Calm Calm - N/A   Overcast
12:55 PM 15.8 °F 14.0 °F 93% 29.69 in 7.0 mi Calm Calm - N/A   Overcast
1:16 PM 15.8 °F 14.0 °F 93% 29.68 in 10.0 mi Calm Calm - N/A   Overcast
1:35 PM 15.8 °F 15.8 °F 100% 29.67 in 10.0 mi Calm Calm - N/A   Overcast
1:55 PM 17.6 °F 15.8 °F 93% 29.66 in 10.0 mi Calm Calm - N/A   Overcast
2:15 PM 17.6 °F 14.0 °F 86% 29.66 in 10.0 mi Calm Calm - N/A   Overcast
2:35 PM 15.8 °F 14.0 °F 93% 29.66 in 10.0 mi Calm Calm - N/A   Overcast
2:55 PM 15.8 °F 14.0 °F 93% 29.66 in 7.0 mi Calm Calm - N/A   Overcast
3:15 PM 15.8 °F 15.8 °F 100% 29.66 in 10.0 mi Calm Calm - N/A   Overcast
3:35 PM 15.8 °F 15.8 °F 100% 29.66 in 10.0 mi Calm Calm - N/A   Overcast
3:37 PM 15.8 °F 14.0 °F 93% 29.66 in 10.0 mi Calm Calm - N/A   Overcast
6:35 PM 15.8 °F 15.8 °F 100% 29.66 in 10.0 mi Calm Calm - N/A   Overcast
6:55 PM 15.8 °F 15.8 °F 100% 29.65 in 10.0 mi Calm Calm - N/A   Overcast
7:15 PM 15.8 °F 14.0 °F 93% 29.66 in 10.0 mi Calm Calm - N/A   Overcast
7:35 PM 15.8 °F 14.0 °F 93% 29.65 in 10.0 mi Calm Calm - N/A   Overcast
7:55 PM 15.8 °F 14.0 °F 93% 29.65 in 10.0 mi Calm Calm - N/A   Overcast
8:15 PM 15.8 °F 15.8 °F 100% 29.66 in 10.0 mi Calm Calm - N/A   Overcast
8:35 PM 15.8 °F 14.0 °F 93% 29.65 in 10.0 mi Calm Calm - N/A   Unknown
8:56 PM 15.8 °F 15.8 °F 100% 29.65 in 10.0 mi Calm Calm - N/A   Overcast
9:15 PM 15.8 °F 14.0 °F 93% 29.64 in 10.0 mi Calm Calm - N/A   Overcast
9:35 PM 15.8 °F 14.0 °F 93% 29.65 in 10.0 mi Calm Calm - N/A   Overcast
9:56 PM 15.8 °F 15.8 °F 100% 29.65 in 10.0 mi Calm Calm - N/A   Overcast
10:15 PM 15.8 °F 14.0 °F 93% 29.65 in 10.0 mi Calm Calm - N/A   Overcast
10:35 PM 15.8 °F 15.8 °F 100% 29.64 in 10.0 mi Calm Calm - N/A   Overcast
10:56 PM 15.8 °F 14.0 °F 93% 29.64 in 10.0 mi Calm Calm - N/A   Overcast
11:15 PM 15.8 °F 14.0 °F 93% 29.64 in 10.0 mi Calm Calm - N/A   Overcast
11:35 PM 15.8 °F 14.0 °F 93% 29.64 in 10.0 mi Calm Calm - N/A   Overcast
11:55 PM 15.8 °F 15.8 °F 100% 29.64 in 10.0 mi Calm Calm - N/A Snow Light Snow